Вернуться в каталог

ARIANE 44L DEB

LostHEO
NORAD 27669·DEBRIS·🇫🇷 France

Запущен Oct 29, 1991 с Guiana Space Centre

Loading…

Ближайшие Пролёты (ближайшие 24 часа)

TLE

УстаревшееSource: Space-Track

Эпоха: Jul 11, 2026, 04:27 UTC

1 27669U 91075E   26192.18585096  .00681942  00000-0  14970-1 0  9996
2 27669   7.8944 102.4007 4543805 101.4984 311.2887  6.53694019342714

Отслеживайте ARIANE 44L DEB в реальном времени с AllMySat

Download on the App Store